TimeCDT,TemperatureF,Dew PointF,Humidity,Sea Level PressureIn,VisibilityMPH,Wind Direction,Wind SpeedMPH,Gust SpeedMPH,PrecipitationIn,Events,Conditions,WindDirDegrees,DateUTC
12:15 AM,31.5,20.7,64,29.94,10.0,Calm,Calm,-,N/A,,Clear,0,2012-11-01 05:15:00
12:35 AM,31.1,20.7,65,29.95,10.0,WNW,5.8,-,N/A,,Clear,290,2012-11-01 05:35:00
12:55 AM,32.0,21.2,64,29.95,10.0,WNW,6.9,-,N/A,,Clear,290,2012-11-01 05:55:00
1:15 AM,31.1,21.4,67,29.95,10.0,WNW,5.8,-,N/A,,Clear,300,2012-11-01 06:15:00
1:35 AM,30.6,21.2,68,29.95,10.0,WNW,4.6,-,N/A,,Clear,300,2012-11-01 06:35:00
1:55 AM,30.2,21.7,71,29.95,10.0,WNW,4.6,-,N/A,,Clear,300,2012-11-01 06:55:00
2:15 AM,30.7,22.1,70,29.95,10.0,WNW,8.1,-,N/A,,Clear,300,2012-11-01 07:15:00
2:35 AM,31.5,22.3,69,29.95,10.0,WNW,6.9,-,N/A,,Clear,300,2012-11-01 07:35:00
2:55 AM,30.2,23.0,75,29.95,10.0,WNW,5.8,-,N/A,,Clear,300,2012-11-01 07:55:00
3:15 AM,30.2,22.1,72,29.95,10.0,WNW,5.8,-,N/A,,Clear,290,2012-11-01 08:15:00
3:35 AM,30.7,23.2,74,29.94,10.0,West,8.1,-,N/A,,Clear,280,2012-11-01 08:35:00
3:55 AM,32.0,23.9,72,29.94,10.0,WNW,6.9,-,N/A,,Scattered Clouds,290,2012-11-01 08:55:00
4:15 AM,32.0,23.5,71,29.94,10.0,West,5.8,-,N/A,,Scattered Clouds,280,2012-11-01 09:15:00
4:35 AM,30.9,23.7,75,29.94,10.0,West,6.9,-,N/A,,Scattered Clouds,280,2012-11-01 09:35:00
4:55 AM,32.0,24.8,75,29.94,10.0,West,6.9,-,N/A,,Mostly Cloudy,270,2012-11-01 09:55:00
5:15 AM,33.4,25.5,73,29.94,10.0,West,5.8,-,N/A,,Overcast,270,2012-11-01 10:15:00
5:35 AM,34.3,26.4,73,29.94,10.0,WNW,3.5,-,N/A,,Overcast,290,2012-11-01 10:35:00
5:55 AM,35.6,26.6,70,29.94,10.0,Calm,Calm,-,N/A,,Overcast,0,2012-11-01 10:55:00
6:15 AM,35.2,27.5,73,29.94,10.0,Calm,Calm,-,N/A,,Overcast,0,2012-11-01 11:15:00
6:35 AM,35.8,27.3,71,29.95,10.0,West,4.6,-,N/A,,Overcast,260,2012-11-01 11:35:00
6:55 AM,37.4,26.2,64,29.95,10.0,West,4.6,-,N/A,,Overcast,260,2012-11-01 11:55:00
7:15 AM,36.9,27.0,67,29.94,10.0,Calm,Calm,-,N/A,,Overcast,0,2012-11-01 12:15:00
7:35 AM,36.7,27.5,69,29.95,10.0,Calm,Calm,-,N/A,,Overcast,0,2012-11-01 12:35:00
7:55 AM,37.6,26.8,65,29.95,10.0,Calm,Calm,-,N/A,,Overcast,0,2012-11-01 12:55:00
8:15 AM,37.4,28.4,70,29.96,10.0,West,3.5,-,N/A,,Overcast,270,2012-11-01 13:15:00
8:35 AM,38.7,28.9,68,29.96,10.0,West,3.5,-,N/A,,Overcast,260,2012-11-01 13:35:00
8:55 AM,40.1,28.9,64,29.96,10.0,West,4.6,-,N/A,,Overcast,260,2012-11-01 13:55:00
9:15 AM,41.7,28.6,60,29.95,10.0,West,3.5,-,N/A,,Overcast,270,2012-11-01 14:15:00
9:35 AM,43.3,28.6,56,29.95,10.0,Calm,Calm,-,N/A,,Overcast,0,2012-11-01 14:35:00
9:55 AM,45.3,29.3,54,29.95,10.0,Calm,Calm,-,N/A,,Overcast,0,2012-11-01 14:55:00
10:15 AM,47.5,28.2,47,29.95,10.0,West,3.5,-,N/A,,Overcast,280,2012-11-01 15:15:00
10:35 AM,50.2,28.8,44,29.94,10.0,WSW,3.5,-,N/A,,Overcast,250,2012-11-01 15:35:00
10:55 AM,51.6,28.4,41,29.94,10.0,SW,6.9,-,N/A,,Mostly Cloudy,230,2012-11-01 15:55:00
11:15 AM,53.1,28.6,39,29.94,10.0,WSW,5.8,-,N/A,,Scattered Clouds,250,2012-11-01 16:15:00
11:35 AM,54.3,30.2,40,29.93,10.0,SW,9.2,-,N/A,,Scattered Clouds,220,2012-11-01 16:35:00
11:55 AM,55.4,30.4,38,29.92,10.0,SW,8.1,-,N/A,,Mostly Cloudy,220,2012-11-01 16:55:00
12:15 PM,56.5,32.0,39,29.91,10.0,WSW,8.1,-,N/A,,Mostly Cloudy,240,2012-11-01 17:15:00
12:35 PM,58.3,32.7,38,29.90,10.0,West,12.7,-,N/A,,Mostly Cloudy,260,2012-11-01 17:35:00
12:55 PM,57.2,33.8,41,29.89,10.0,SW,6.9,-,N/A,,Mostly Cloudy,220,2012-11-01 17:55:00
1:15 PM,60.1,34.7,39,29.88,10.0,West,11.5,-,N/A,,Scattered Clouds,270,2012-11-01 18:15:00
1:35 PM,60.8,35.4,39,29.86,10.0,West,11.5,-,N/A,,Scattered Clouds,260,2012-11-01 18:35:00
1:55 PM,59.9,35.4,40,29.86,10.0,West,13.8,-,N/A,,Mostly Cloudy,280,2012-11-01 18:55:00
2:15 PM,61.0,36.0,39,29.85,10.0,WSW,9.2,-,N/A,,Mostly Cloudy,250,2012-11-01 19:15:00
2:35 PM,62.1,36.1,38,29.84,10.0,West,15.0,21.9,N/A,,Mostly Cloudy,280,2012-11-01 19:35:00
2:55 PM,61.7,37.0,40,29.84,10.0,WNW,15.0,21.9,N/A,,Mostly Cloudy,290,2012-11-01 19:55:00
3:15 PM,61.0,37.0,41,29.84,10.0,WNW,13.8,20.7,N/A,,Mostly Cloudy,290,2012-11-01 20:15:00
3:35 PM,59.5,36.5,42,29.84,10.0,NW,11.5,-,N/A,,Overcast,310,2012-11-01 20:35:00
3:55 PM,60.1,38.3,44,29.84,10.0,WNW,17.3,21.9,N/A,,Mostly Cloudy,300,2012-11-01 20:55:00
4:15 PM,59.9,37.9,44,29.84,10.0,WNW,12.7,-,N/A,,Mostly Cloudy,300,2012-11-01 21:15:00
4:35 PM,59.0,37.0,44,29.84,10.0,WNW,15.0,20.7,N/A,,Scattered Clouds,300,2012-11-01 21:35:00
4:55 PM,58.1,36.9,45,29.85,10.0,NW,11.5,-,N/A,,Clear,320,2012-11-01 21:55:00
5:15 PM,56.3,36.3,47,29.85,10.0,NW,8.1,-,N/A,,Clear,320,2012-11-01 22:15:00
5:35 PM,54.0,36.1,51,29.85,10.0,NW,6.9,-,N/A,,Clear,310,2012-11-01 22:35:00
5:55 PM,52.5,35.6,53,29.85,10.0,WNW,8.1,-,N/A,,Clear,300,2012-11-01 22:55:00
6:15 PM,50.0,35.2,57,29.86,10.0,WNW,5.8,-,N/A,,Clear,300,2012-11-01 23:15:00
6:35 PM,48.4,34.5,59,29.86,10.0,NW,5.8,-,N/A,,Clear,310,2012-11-01 23:35:00
6:55 PM,45.3,33.4,63,29.86,10.0,WNW,5.8,-,N/A,,Clear,290,2012-11-01 23:55:00
7:15 PM,43.9,33.6,67,29.87,10.0,NW,4.6,-,N/A,,Clear,310,2012-11-02 00:15:00
7:35 PM,42.6,33.3,69,29.88,10.0,NW,5.8,-,N/A,,Clear,310,2012-11-02 00:35:00
7:55 PM,41.9,33.1,71,29.89,10.0,NW,5.8,-,N/A,,Clear,320,2012-11-02 00:55:00
8:15 PM,43.2,32.5,66,29.90,10.0,NNW,9.2,-,N/A,,Clear,330,2012-11-02 01:15:00
8:35 PM,44.1,32.2,63,29.91,10.0,NNW,8.1,-,N/A,,Clear,330,2012-11-02 01:35:00
8:55 PM,42.4,32.0,67,29.91,10.0,NNW,9.2,-,N/A,,Clear,330,2012-11-02 01:55:00
9:15 PM,41.7,32.0,68,29.91,10.0,NNW,6.9,-,N/A,,Clear,330,2012-11-02 02:15:00
9:35 PM,40.5,31.6,71,29.92,10.0,NW,6.9,-,N/A,,Clear,320,2012-11-02 02:35:00
9:55 PM,39.4,31.6,74,29.92,10.0,NNW,5.8,-,N/A,,Clear,330,2012-11-02 02:55:00
10:15 PM,38.7,31.5,75,29.93,10.0,NNW,6.9,-,N/A,,Clear,330,2012-11-02 03:15:00
10:35 PM,36.5,30.7,80,29.93,10.0,NW,4.6,-,N/A,,Clear,320,2012-11-02 03:35:00
10:55 PM,35.6,30.2,81,29.94,10.0,NW,5.8,-,N/A,,Clear,320,2012-11-02 03:55:00
11:15 PM,35.6,30.0,80,29.94,10.0,NNW,5.8,-,N/A,,Clear,340,2012-11-02 04:15:00
11:35 PM,35.8,29.8,79,29.94,10.0,NW,5.8,-,N/A,,Clear,320,2012-11-02 04:35:00
11:55 PM,35.2,29.3,79,29.95,10.0,NNW,6.9,-,N/A,,Clear,340,2012-11-02 04:55:00